[[{"header":{"parameterUnit":"m.s-1","parameterCategory":1,"la1":30.2991,"la2":30.254,"lo1":-89.0895,"lo2":-89.0444,"dy":0.0017,"dx":0.0017,"nx":28,"ny":28,"refTime":"2025-01-10T03:00:00:Z","depth":0,"parameterNumber":2,"parameterNumberName":"U-component_of_WINDS"},"data":[0,0,0,0,0,0,0,0,0,0,0,0,0,0,0,0,0,0,0,0,0,0,0,0,0,0,0,0,0,0,0,0,0,0,0,0,0,0,0,0,0,0,0,0,0,0,0,0,0,0,0,0,0,0,0,0,0,0,5.2552,5.2553,0,5.262,5.2621,5.2622,5.2551,5.2548,5.2546,5.2543,5.2611,5.2615,5.262,0,0,0,0,0,0,0,0,0,0,0,0,0,5.2359,5.2363,5.2552,5.2553,5.2554,5.262,5.2621,5.2622,5.2552,5.2548,5.2545,5.2542,5.261,5.2615,5.262,0,0,0,0,0,0,0,0,0,0,0,0,0,5.2437,5.2365,5.2552,5.2526,5.2525,5.262,5.2621,5.2622,5.2552,5.2548,5.2544,5.254,5.2608,5.2614,5.2621,5.2743,0,0,5.2641,5.2644,0,0,0,0,0,0,0,0,5.2433,5.2444,5.2529,5.2528,5.2527,5.2573,5.2578,5.2663,5.2553,5.2542,5.2543,5.2538,5.2602,5.2608,5.263,5.2747,5.2749,5.2641,5.2645,5.2648,5.265,0,0,0,0,0,0,0,5.2427,5.2441,5.2579,5.2531,5.2529,5.2511,5.2518,5.2594,5.2594,5.2543,5.2538,5.2547,5.26,5.2624,5.2631,5.275,5.2641,5.2647,5.2651,5.2654,5.2972,5.2977,0,0,0,0,0,0,5.2425,5.2437,5.2577,5.2581,5.2469,5.2518,5.2526,5.2562,5.2593,5.2594,5.255,5.2543,5.2615,5.2624,5.2633,5.278,5.2648,5.2654,5.2658,5.2968,5.2973,5.2978,0,0,0,0,0,0,5.2421,5.2438,5.2574,5.2508,5.2523,5.2526,5.2568,5.2566,5.259,5.2599,5.2598,5.2575,5.2612,5.2624,5.2717,5.2781,5.2657,5.2663,5.2962,5.297,5.2976,5.3073,0,0,0,0,0,0,5.2416,5.2437,5.2484,5.2509,5.2527,5.2657,5.2572,5.257,5.2601,5.2593,5.2622,5.2622,5.261,5.2708,5.2724,5.2788,5.2668,5.2957,5.2966,5.2974,5.3064,5.3083,5.3098,0,0,0,0,0,5.2409,5.2508,5.2487,5.2504,5.2586,5.2661,5.2671,5.2655,5.2607,5.2654,5.266,5.2621,5.2772,5.2718,5.2735,5.2802,5.2953,5.2963,5.2973,5.3057,5.3079,5.3098,0,0,0,0,0,0,5.2489,5.2511,5.2487,5.2597,5.2628,5.2649,5.2707,5.2679,5.2723,5.2713,5.2691,5.2698,5.2797,5.2809,5.2748,5.2923,5.2854,5.2868,5.2912,5.2933,5.295,5.2945,5.2674,0,0,0,0,0,5.2519,5.2579,5.2594,5.269,5.2707,5.2705,5.2737,5.2722,5.2752,5.2765,5.2777,5.2808,5.2862,5.2898,5.2949,5.3066,5.3071,5.3121,5.3138,5.3152,5.3164,5.3228,5.325,5.3012,5.3012,5.3012,0,0,5.2583,5.2602,5.2641,5.2706,5.2728,5.279,5.2716,5.2784,5.283,5.2775,5.2864,5.2875,5.2907,5.3013,5.3061,5.3026,5.3231,5.3165,5.3176,5.3181,5.3241,5.3264,5.3284,5.3019,5.3017,5.3016,0,0,5.273,5.275,5.2833,5.2857,5.2891,5.289,5.291,5.2936,5.2941,5.303,5.299,5.3044,5.3138,5.3163,5.3189,5.3348,5.3314,5.3365,5.3453,5.3516,5.3534,5.3551,5.3608,5.3629,5.3377,5.3377,5.3377,0,5.2804,5.2896,5.2878,5.295,5.2981,5.2935,5.3018,5.3042,5.3091,5.3113,5.3074,5.3192,5.3211,5.3323,5.3362,5.3384,5.3406,5.3361,5.3533,5.355,5.3565,5.3619,5.3641,5.3383,5.3382,5.3382,5.3381,0,5.2986,5.3051,5.3113,5.3163,5.32,5.3278,5.3272,5.3312,5.3294,5.3297,5.3389,5.341,5.3464,5.349,5.3473,5.36,5.3578,5.3537,5.3467,5.3594,5.3645,5.3665,5.3392,5.339,5.3388,5.3386,0,0,5.3184,5.3225,5.3248,5.3271,5.3306,5.3356,5.3432,5.3486,5.3521,5.3557,5.362,5.3701,5.3664,5.3692,5.3678,5.3733,5.3859,5.3685,5.3686,5.3717,5.4001,5.4032,5.4057,5.3837,5.3841,5.3844,5.3999,0,5.3333,5.3464,5.3451,5.3577,5.3637,5.3595,5.3661,5.369,5.3695,5.3746,5.3751,5.381,5.3755,5.3773,5.3825,5.3833,5.3916,5.3821,5.3896,5.3899,5.3889,5.4083,5.4116,5.4261,5.4018,5.4022,5.4024,0,5.3523,5.3567,5.3699,5.3727,5.3752,5.3812,5.3861,5.3911,5.3943,5.3943,5.3976,5.3953,5.4029,5.3958,5.4063,5.3999,5.4029,5.4037,5.4042,5.4049,5.3969,5.4095,5.4306,5.4328,5.4055,5.4053,5.4051,0,5.3656,5.3748,5.3839,5.3859,5.3894,5.3937,5.3954,5.3982,5.4016,5.4059,5.4081,5.4132,5.4161,5.4201,5.4192,5.4141,5.43,5.4227,5.4301,5.4302,5.4336,5.4334,5.4556,5.4356,5.4355,5.4355,5.4355,0,5.3823,5.3905,5.3899,5.3955,5.4046,5.4031,5.4121,5.4132,5.4159,5.4216,5.4183,5.4237,5.4222,5.4276,5.427,5.4358,5.4371,5.4373,5.437,5.4376,5.4376,5.4395,5.4385,5.4361,5.4359,5.4358,5.4357,0,5.3986,5.3985,5.4082,5.4107,5.4116,5.4182,5.4204,5.4257,5.4259,5.4333,5.4349,5.4353,5.4415,5.4411,5.448,5.4476,5.4585,5.4571,5.4575,5.4572,5.4646,5.4639,5.4888,5.492,5.4699,5.4701,5.4703,0,5.4093,5.4156,5.4189,5.4225,5.4245,5.4304,5.4339,5.4326,5.4364,5.4407,5.4455,5.4514,5.4561,5.4662,5.4671,5.4724,5.4711,5.4794,5.4718,5.4723,5.4713,5.4709,5.4716,5.4809,5.4811,5.4813,5.4815,0,5.4283,5.428,5.4332,5.4385,5.4428,5.4468,5.4505,5.4537,5.4528,5.4572,5.4636,5.4672,5.4744,5.4803,5.4855,5.4871,5.4842,5.4839,5.4859,5.4866,5.4866,5.4867,5.4616,5.4833,5.4831,5.483,5.4829,5.4828,5.4422,5.4476,5.4508,5.4568,5.4595,5.463,5.4682,5.4691,5.4745,5.4803,5.4792,5.4864,5.4895,5.4961,5.4983,5.5039,5.5009,5.5038,5.5045,5.5052,5.5061,5.4857,5.5048,5.5047,5.5047,5.5047,5.5046,0,5.4611,5.463,5.4685,5.4738,5.4785,5.4755,5.4795,5.4836,5.49,5.4932,5.4979,5.5053,5.5111,5.5125,5.5181,5.5223,5.5211,5.5238,5.5235,5.5239,5.5085,5.5062,5.5247,5.5247,5.5247,5.5247,5.5247,5.5247,5.4715,5.4806,5.4807,5.491,5.4928,5.4999,5.5025,5.5057,5.5083,5.5168,5.5216,5.5225,5.5251,5.5308,5.536,5.5363,5.5385,5.5417,5.5415,5.527,5.525,5.5231,5.5209,5.5422,5.5422,5.5565,5.5566,5.5567]},{"header":{"parameterUnit":"m.s-1","parameterCategory":1,"la1":30.2991,"la2":30.254,"lo1":-89.0895,"lo2":-89.0444,"dy":0.0017,"dx":0.0017,"nx":28,"ny":28,"refTime":"2025-01-10T03:00:00:Z","depth":0,"parameterNumber":3,"parameterNumberName":"V-component_of_WINDS"},"data":[0,0,0,0,0,0,0,0,0,0,0,0,0,0,0,0,0,0,0,0,0,0,0,0,0,0,0,0,0,0,0,0,0,0,0,0,0,0,0,0,0,0,0,0,0,0,0,0,0,0,0,0,0,0,0,0,0,0,-6.1118,-6.112,0,-6.131,-6.1312,-6.1314,-6.1295,-6.1292,-6.1289,-6.1286,-6.1481,-6.1488,-6.1496,0,0,0,0,0,0,0,0,0,0,0,0,0,-6.0735,-6.0742,-6.1118,-6.112,-6.1123,-6.1309,-6.1312,-6.1314,-6.1295,-6.1292,-6.1288,-6.1285,-6.1478,-6.1487,-6.1497,0,0,0,0,0,0,0,0,0,0,0,0,0,-6.0912,-6.0745,-6.1118,-6.1136,-6.1139,-6.1309,-6.1312,-6.1315,-6.1296,-6.1292,-6.1287,-6.1283,-6.1475,-6.1486,-6.1498,-6.1661,0,0,-6.1535,-6.154,0,0,0,0,0,0,0,0,-6.0902,-6.0926,-6.1131,-6.1135,-6.1139,-6.1274,-6.1248,-6.1431,-6.1297,-6.1236,-6.1286,-6.1281,-6.1415,-6.1432,-6.1477,-6.1671,-6.1679,-6.1536,-6.1543,-6.1548,-6.1551,0,0,0,0,0,0,0,-6.0889,-6.0917,-6.1194,-6.1134,-6.1139,-6.1134,-6.1154,-6.1283,-6.1349,-6.1241,-6.124,-6.1263,-6.1417,-6.1466,-6.1482,-6.1682,-6.1535,-6.1546,-6.1553,-6.1558,-6.202,-6.2024,0,0,0,0,0,0,-6.0873,-6.0907,-6.1188,-6.1199,-6.1007,-6.1145,-6.1167,-6.1235,-6.1347,-6.136,-6.1267,-6.1262,-6.1448,-6.1468,-6.1489,-6.1688,-6.1548,-6.1559,-6.1566,-6.2015,-6.2021,-6.2026,0,0,0,0,0,0,-6.0865,-6.0898,-6.118,-6.1053,-6.1089,-6.1156,-6.1232,-6.1241,-6.129,-6.1367,-6.1378,-6.1306,-6.1445,-6.1472,-6.1619,-6.1694,-6.1565,-6.1575,-6.2008,-6.2016,-6.2023,-6.2087,0,0,0,0,0,0,-6.0854,-6.0895,-6.0958,-6.1055,-6.1096,-6.1307,-6.1237,-6.1248,-6.1311,-6.1306,-6.1406,-6.1418,-6.1444,-6.1601,-6.1631,-6.1708,-6.1585,-6.2002,-6.2012,-6.2021,-6.2079,-6.2096,-6.2111,0,0,0,0,0,-6.084,-6.0968,-6.0961,-6.0995,-6.1176,-6.1312,-6.1335,-6.1363,-6.1317,-6.1381,-6.143,-6.1415,-6.1681,-6.1617,-6.165,-6.1732,-6.1997,-6.2009,-6.202,-6.2072,-6.2093,-6.2111,0,0,0,0,0,0,-6.0878,-6.0981,-6.0975,-6.1137,-6.1216,-6.1308,-6.1389,-6.1384,-6.1477,-6.1468,-6.1498,-6.152,-6.1669,-6.1715,-6.1641,-6.1897,-6.1833,-6.1852,-6.1861,-6.1882,-6.1898,-6.1883,-6.1595,0,0,0,0,0,-6.0905,-6.1007,-6.1092,-6.1227,-6.1267,-6.1322,-6.1382,-6.1397,-6.1479,-6.1512,-6.1572,-6.1652,-6.1754,-6.182,-6.1918,-6.2085,-6.2107,-6.2159,-6.2175,-6.2188,-6.2203,-6.2296,-6.232,-6.2064,-6.2064,-6.2064,0,0,-6.0962,-6.1031,-6.1094,-6.1236,-6.1299,-6.1404,-6.135,-6.1463,-6.1541,-6.1529,-6.1672,-6.1719,-6.181,-6.1968,-6.2041,-6.2011,-6.2279,-6.2202,-6.2212,-6.2221,-6.231,-6.2335,-6.2356,-6.2072,-6.207,-6.2069,0,0,-6.112,-6.1182,-6.1302,-6.1367,-6.1463,-6.1498,-6.1527,-6.1621,-6.1652,-6.1796,-6.1789,-6.1882,-6.2057,-6.2123,-6.218,-6.2364,-6.2354,-6.2395,-6.248,-6.257,-6.259,-6.2608,-6.2674,-6.2698,-6.2411,-6.2411,-6.2411,0,-6.1179,-6.1337,-6.1365,-6.148,-6.1543,-6.1538,-6.166,-6.172,-6.1843,-6.1887,-6.1852,-6.2073,-6.2134,-6.2308,-6.2353,-6.2399,-6.2433,-6.2384,-6.2585,-6.2603,-6.2621,-6.2684,-6.2709,-6.2415,-6.2415,-6.2414,-6.2414,0,-6.1405,-6.1515,-6.1601,-6.172,-6.1793,-6.1911,-6.1957,-6.2027,-6.2036,-6.2075,-6.2222,-6.2296,-6.2409,-6.2452,-6.2461,-6.2628,-6.2606,-6.2578,-6.2515,-6.2649,-6.2709,-6.2734,-6.2422,-6.242,-6.2419,-6.2418,0,0,-6.1591,-6.1725,-6.1756,-6.1811,-6.1917,-6.2003,-6.2121,-6.2232,-6.2292,-6.2378,-6.2477,-6.2626,-6.2601,-6.2665,-6.2682,-6.2761,-6.2903,-6.2723,-6.2726,-6.2754,-6.3093,-6.3113,-6.3141,-6.2897,-6.2902,-6.2906,-6.3085,0,-6.176,-6.1969,-6.1998,-6.2183,-6.2286,-6.2282,-6.2385,-6.2462,-6.2502,-6.2595,-6.2639,-6.2744,-6.2703,-6.2742,-6.282,-6.2869,-6.2972,-6.2857,-6.299,-6.2995,-6.2968,-6.3173,-6.3195,-6.3361,-6.3109,-6.3113,-6.3116,0,-6.1984,-6.2077,-6.2273,-6.2366,-6.241,-6.2502,-6.2607,-6.2696,-6.2782,-6.2806,-6.2878,-6.2885,-6.3008,-6.294,-6.3109,-6.3031,-6.3087,-6.312,-6.3127,-6.314,-6.3063,-6.3192,-6.3414,-6.3439,-6.3153,-6.315,-6.3147,0,-6.2101,-6.2274,-6.2414,-6.2461,-6.2573,-6.2638,-6.2687,-6.277,-6.2835,-6.2927,-6.297,-6.3075,-6.3132,-6.3213,-6.3248,-6.3195,-6.3416,-6.335,-6.3439,-6.3438,-6.3485,-6.3482,-6.372,-6.3521,-6.3521,-6.352,-6.352,0,-6.2287,-6.2407,-6.2468,-6.2554,-6.2689,-6.2721,-6.2853,-6.29,-6.2974,-6.3069,-6.3072,-6.3162,-6.3203,-6.3298,-6.3327,-6.3463,-6.3489,-6.3511,-6.3518,-6.3512,-6.3509,-6.3549,-6.3538,-6.3527,-6.3526,-6.3524,-6.3523,0,-6.244,-6.2486,-6.2638,-6.2732,-6.2758,-6.2853,-6.2934,-6.3017,-6.3057,-6.3178,-6.3208,-6.327,-6.3383,-6.3426,-6.3564,-6.3583,-6.3741,-6.3737,-6.3712,-6.3713,-6.38,-6.3791,-6.4072,-6.4111,-6.3886,-6.3888,-6.389,0,-6.2555,-6.2648,-6.2752,-6.2816,-6.2868,-6.2972,-6.3039,-6.3074,-6.3144,-6.3251,-6.3322,-6.3434,-6.3526,-6.3707,-6.3764,-6.387,-6.3869,-6.3961,-6.3885,-6.3877,-6.3872,-6.3866,-6.3876,-6.3974,-6.3977,-6.3979,-6.398,0,-6.2756,-6.2774,-6.2871,-6.2977,-6.3058,-6.3142,-6.3225,-6.3277,-6.3325,-6.3404,-6.352,-6.3591,-6.3732,-6.3844,-6.3953,-6.4004,-6.4001,-6.4004,-6.403,-6.4024,-6.4006,-6.4018,-6.375,-6.3997,-6.3995,-6.3994,-6.3993,-6.3992,-6.2894,-6.2976,-6.3063,-6.3171,-6.3237,-6.3315,-6.3398,-6.3449,-6.3546,-6.3664,-6.3679,-6.3804,-6.3889,-6.4035,-6.4091,-6.4189,-6.4164,-6.4202,-6.4212,-6.4221,-6.4227,-6.399,-6.4208,-6.4208,-6.4208,-6.4207,-6.4207,0,-6.3095,-6.3151,-6.325,-6.3366,-6.3452,-6.3442,-6.3533,-6.3605,-6.3714,-6.3794,-6.3885,-6.4019,-6.4128,-6.4195,-6.4305,-6.437,-6.4372,-6.4398,-6.4393,-6.4405,-6.4242,-6.4209,-6.4395,-6.4395,-6.4395,-6.4395,-6.4395,-6.4395,-6.321,-6.3349,-6.3378,-6.355,-6.3605,-6.3728,-6.3781,-6.3852,-6.3916,-6.4066,-6.4156,-6.4199,-6.4274,-6.439,-6.449,-6.4506,-6.4547,-6.4575,-6.459,-6.4436,-6.4417,-6.4398,-6.4367,-6.4584,-6.4584,-6.4746,-6.4747,-6.4748]}]]